EW4725 Weather Reports


time (UTC)temp
F
wind
direction
speed
knots
gust
knots
rain 1hr
in
rain 24hr
in
rain mn
in
humidity
%
barometer
mb
20260504230816 66 283 9.6 14.8 0.00 0.00 0.00 61 1014.5
20260504230356 66 283 8.7 13.0 0.00 0.00 0.00 63 1014.5
20260504225815 66 283 5.2 10.4 0.00 0.00 0.00 64 1014.6
20260504225336 66 283 6.1 8.7 0.00 0.00 0.00 62 1014.7
20260504224815 66 283 6.1 9.6 0.00 0.00 0.00 63 1014.7
20260504224315 66 283 8.7 12.2 0.00 0.00 0.00 62 1014.9
20260504223815 66 283 7.8 10.4 0.00 0.00 0.00 63 1014.7
20260504223316 67 260 7.8 13.9 0.00 0.00 0.00 62 1014.8
20260504222815 67 283 8.7 13.0 0.00 0.00 0.00 61 1014.9
20260504222356 68 260 5.2 9.6 0.00 0.00 0.00 60 1014.8
20260504221815 67 260 7.8 13.9 0.00 0.00 0.00 60 1014.9
20260504221316 67 260 8.7 12.2 0.00 0.00 0.00 59 1014.9
20260504220816 67 260 8.7 13.0 0.00 0.00 0.00 58 1015.0
20260504220315 67 260 7.0 10.4 0.00 0.00 0.00 58 1015.0
20260504215815 67 283 5.2 8.7 0.00 0.00 0.00 59 1015.1
20260504215315 67 260 10.4 13.9 0.00 0.00 0.00 60 1015.1
20260504214836 67 260 7.0 12.2 0.00 0.00 0.00 60 1015.1
20260504214316 67 283 7.0 11.3 0.00 0.00 0.00 60 1015.2
20260504213816 68 260 5.2 7.8 0.00 0.00 0.00 58 1015.2
20260504213315 68 260 7.0 10.4 0.00 0.00 0.00 57 1015.2
20260504212816 68 260 6.1 11.3 0.00 0.00 0.00 58 1015.3
20260504212315 68 260 5.2 12.2 0.00 0.00 0.00 56 1015.3
20260504211816 68 238 5.2 7.8 0.00 0.00 0.00 55 1015.3
20260504211315 69 215 7.0 9.6 0.00 0.00 0.00 56 1015.4
20260504210816 69 283 6.1 9.6 0.00 0.00 0.00 56 1015.3
20260504210335 69 260 4.3 7.8 0.00 0.00 0.00 57 1015.3
20260504205815 68 283 7.0 11.3 0.00 0.00 0.00 57 1015.2
20260504205315 68 283 7.8 12.2 0.00 0.00 0.00 57 1015.2
20260504204816 68 260 5.2 8.7 0.00 0.00 0.00 58 1015.3
20260504204315 68 283 6.1 11.3 0.00 0.00 0.00 57 1015.3
20260504203815 68 283 7.0 10.4 0.00 0.00 0.00 56 1015.3
20260504203315 68 260 5.2 7.8 0.00 0.00 0.00 55 1015.3
20260504202835 68 283 5.2 9.6 0.00 0.00 0.00 52 1015.3
20260504202315 68 283 6.1 7.8 0.00 0.00 0.00 52 1015.3
20260504201815 69 283 5.2 7.0 0.00 0.00 0.00 51 1015.3
20260504201335 69 260 3.5 5.2 0.00 0.00 0.00 51 1015.5
20260504200816 69 260 7.0 11.3 0.00 0.00 0.00 51 1015.5
20260504200316 69 283 8.7 11.3 0.00 0.00 0.00 51 1015.5
20260504195815 69 283 5.2 7.8 0.00 0.00 0.00 50 1015.4
20260504195335 69 283 3.5 6.1 0.00 0.00 0.00 52 1015.5
20260504194815 69 305 4.3 7.8 0.00 0.00 0.00 53 1015.6
20260504194315 68 260 6.1 9.6 0.00 0.00 0.00 54 1015.7
20260504193815 68 283 4.3 7.0 0.00 0.00 0.00 54 1015.6
20260504193315 67 283 2.6 4.3 0.00 0.00 0.00 55 1015.7
20260504192816 67 260 5.2 7.0 0.00 0.00 0.00 52 1015.8
20260504192335 68 283 2.6 4.3 0.00 0.00 0.00 51 1015.9
20260504191815 68 260 4.3 7.8 0.00 0.00 0.00 52 1015.9
20260504191315 67 283 3.5 7.0 0.00 0.00 0.00 52 1015.8
20260504190815 67 283 4.3 7.0 0.00 0.00 0.00 51 1015.9
20260504190335 67 260 5.2 7.8 0.00 0.00 0.00 53 1015.8
20260504185815 67 283 7.0 9.6 0.00 0.00 0.00 54 1015.8
20260504185315 67 260 5.2 7.0 0.00 0.00 0.00 55 1016.0
20260504184815 67 260 5.2 9.6 0.00 0.00 0.00 55 1016.0
20260504184335 67 260 3.5 5.2 0.00 0.00 0.00 54 1016.0
20260504183815 67 283 6.1 8.7 0.00 0.00 0.00 54 1016.0
20260504183315 67 260 3.5 8.7 0.00 0.00 0.00 53 1015.9
20260504182815 67 260 4.3 7.0 0.00 0.00 0.00 53 1016.0
20260504182317 67 260 4.3 7.8 0.00 0.00 0.00 51 1016.0
20260504181817 67 238 6.1 8.7 0.00 0.00 0.00 55 1016.1
20260504181315 66 305 5.2 7.8 0.00 0.00 0.00 55 1016.1
20260504180817 66 283 4.3 8.7 0.00 0.00 0.00 56 1016.0
20260504180317 66 260 7.0 8.7 0.00 0.00 0.00 56 1016.0
20260504175817 67 260 7.8 13.0 0.00 0.00 0.00 56 1016.1
20260504175316 66 305 2.6 4.3 0.00 0.00 0.00 55 1016.0
20260504174817 66 260 6.1 9.6 0.00 0.00 0.00 56 1016.0
20260504174337 66 260 5.2 8.7 0.00 0.00 0.00 54 1015.9
20260504173817 66 305 4.3 8.7 0.00 0.00 0.00 55 1015.9
20260504173317 66 260 5.2 8.7 0.00 0.00 0.00 57 1015.8
20260504172817 65 283 5.2 10.4 0.00 0.00 0.00 55 1015.8
20260504172337 65 260 3.5 5.2 0.00 0.00 0.00 58 1015.7
20260504171818 65 260 5.2 8.7 0.00 0.00 0.00 59 1015.8
20260504171317 65 238 5.2 7.0 0.00 0.00 0.00 60 1015.7
20260504170817 65 283 5.2 7.0 0.00 0.00 0.00 59 1015.7
20260504170317 64 215 4.3 6.1 0.00 0.00 0.00 61 1015.8
20260504160317 63 283 4.3 6.1 0.00 0.00 0.00 64 1015.5
20260504150817 60 260 2.6 3.5 0.00 0.00 0.00 73 1015.3
20260504150337 60 260 1.7 4.3 0.00 0.00 0.00 74 1015.3
20260504141317 58 260 2.6 3.5 0.00 0.00 0.00 76 1015.0
20260504140817 58 283 3.5 5.2 0.00 0.00 0.00 76 1015.0
20260504140317 58 260 3.5 5.2 0.00 0.00 0.00 75 1015.0
20260504130817 58 283 0.9 1.7 0.00 0.00 0.00 74 1014.7
20260504130317 58 260 3.5 6.1 0.00 0.00 0.00 74 1014.9
20260504120317 58 238 2.6 5.2 0.00 0.00 0.00 78 1014.6
20260504110316 58 283 2.6 3.5 0.00 0.00 0.00 79 1014.5
20260504100316 57 305 0.9 1.7 0.00 0.00 0.00 81 1014.5
20260504081816 59 260 0.9 2.6 0.00 0.00 0.00 78 1015.3
20260504081316 59 260 2.6 3.5 0.00 0.00 0.00 78 1015.7
20260504080816 59 283 2.6 2.6 0.00 0.00 0.00 78 1015.4
20260504080316 59 260 1.7 2.6 0.00 0.00 0.00 78 1015.4
20260504070337 59 260 4.3 5.2 0.00 0.00 0.00 75 1015.5
20260504050316 60 283 2.6 3.5 0.00 0.00 0.00 78 1015.0
20260504045816 60 260 2.6 4.3 0.00 0.00 0.00 79 1015.0
20260504045316 60 283 2.6 5.2 0.00 0.00 0.00 78 1015.0
20260504044816 60 260 2.6 4.3 0.00 0.00 0.00 78 1015.0
20260504044316 60 260 3.5 4.3 0.00 0.00 0.00 77 1015.0
20260504043836 60 260 2.6 6.1 0.00 0.00 0.00 77 1015.0
20260504043316 60 260 2.6 4.3 0.00 0.00 0.00 77 1014.9
20260504042816 60 260 3.5 5.2 0.00 0.00 0.00 76 1014.8
20260504042316 60 283 2.6 4.3 0.00 0.00 0.00 76 1015.0
20260504041836 60 260 1.7 3.5 0.00 0.00 0.00 76 1014.8
20260504041336 60 260 2.6 3.5 0.00 0.00 0.00 76 1014.7
20260504040816 60 283 3.5 4.3 0.00 0.00 0.00 76 1014.7
20260504040316 60 283 4.3 6.1 0.00 0.00 0.00 76 1014.7
20260504035816 60 260 4.3 7.0 0.00 0.00 0.00 75 1014.5
20260504035336 60 260 3.5 6.1 0.00 0.00 0.00 75 1014.4
20260504034816 60 283 0.9 1.7 0.00 0.00 0.00 75 1014.4
20260504034316 60 283 1.7 3.5 0.00 0.00 0.00 75 1014.6
20260504033816 60 260 1.7 2.6 0.00 0.00 0.00 74 1014.4
20260504033316 60 283 5.2 7.8 0.00 0.00 0.00 74 1014.4
20260504032856 60 305 5.2 7.8 0.00 0.00 0.00 74 1014.3
20260504032316 60 260 4.3 7.8 0.00 0.00 0.00 74 1014.2
20260504031816 60 283 4.3 7.0 0.00 0.00 0.00 74 1014.2
20260504031336 60 283 4.3 6.1 0.00 0.00 0.00 75 1014.1
20260504030816 60 260 1.7 1.7 0.00 0.00 0.00 75 1014.0
20260504030316 60 283 5.2 7.8 0.00 0.00 0.00 75 1013.9
20260504025816 61 260 4.3 6.1 0.00 0.00 0.00 75 1013.9
20260504025316 60 283 5.2 7.8 0.00 0.00 0.00 75 1014.0
20260504024816 60 283 5.2 8.7 0.00 0.00 0.00 75 1013.8
20260504024316 61 283 6.1 9.6 0.00 0.00 0.00 75 1013.8
20260504023816 61 260 7.0 8.7 0.00 0.00 0.00 75 1013.8
20260504023316 61 260 5.2 8.7 0.00 0.00 0.00 74 1013.8
20260504022816 61 260 7.0 11.3 0.00 0.00 0.00 74 1013.8
20260504022316 61 260 4.3 5.2 0.00 0.00 0.00 74 1013.8
20260504021836 61 260 6.1 8.7 0.00 0.00 0.00 74 1013.7
20260504021316 61 260 6.1 9.6 0.00 0.00 0.00 74 1013.6
20260504020816 61 260 5.2 7.0 0.00 0.00 0.00 74 1013.6
20260504020417 61 283 5.2 7.0 0.00 0.00 0.00 73 1013.3
20260504015816 62 260 5.2 7.8 0.00 0.00 0.00 72 1013.5
20260504015316 62 283 4.3 5.2 0.00 0.00 0.00 71 1013.4
20260504014816 62 260 5.2 7.8 0.00 0.00 0.00 71 1013.3
20260504014316 62 283 4.3 5.2 0.00 0.00 0.00 71 1013.3
20260504013816 62 260 4.3 5.2 0.00 0.00 0.00 71 1013.3
20260504013316 62 283 6.1 9.6 0.00 0.00 0.00 70 1013.2
20260504012836 62 260 4.3 7.0 0.00 0.00 0.00 70 1013.1
20260504012316 63 283 7.0 10.4 0.00 0.00 0.00 70 1013.2
20260504011836 63 260 5.2 7.0 0.00 0.00 0.00 70 1013.3
20260504011316 63 260 3.5 8.7 0.00 0.00 0.00 70 1013.2
20260504010836 63 260 4.3 6.1 0.00 0.00 0.00 70 1013.1
20260504010316 63 260 5.2 8.7 0.00 0.00 0.00 70 1013.1
20260504005816 63 283 4.3 7.8 0.00 0.00 0.00 71 1013.1
20260504005316 63 283 6.1 7.8 0.00 0.00 0.00 71 1013.0
20260504004816 63 283 4.3 7.0 0.00 0.00 0.00 71 1013.0
20260504004316 63 238 6.1 8.7 0.00 0.00 0.00 71 1013.1
20260504003836 63 283 3.5 4.3 0.00 0.00 0.00 72 1013.0
20260504003316 63 260 3.5 6.1 0.00 0.00 0.00 72 1012.9
20260504002816 63 283 4.3 6.1 0.00 0.00 0.00 72 1013.0
20260504002336 64 260 6.1 9.6 0.00 0.00 0.00 71 1013.0
20260504001816 64 283 3.5 5.2 0.00 0.00 0.00 72 1013.0
20260504001316 64 260 3.5 7.0 0.00 0.00 0.00 72 1012.9
20260504000816 64 283 2.6 5.2 0.00 0.00 0.00 72 1012.8
20260504000336 64 283 5.2 9.6 0.00 0.00 0.00 71 1012.8
20260503235816 64 305 6.1 10.4 0.00 0.00 0.00 71 1012.8
20260503235316 64 260 7.8 12.2 0.00 0.00 0.00 71 1012.6
20260503234816 64 305 4.3 5.2 0.00 0.00 0.00 70 1012.7
20260503234316 64 260 4.3 7.0 0.00 0.00 0.00 70 1012.8
20260503233816 64 283 5.2 7.8 0.00 0.00 0.00 69 1012.5
20260503233316 64 260 5.2 7.0 0.00 0.00 0.00 68 1012.6
20260503232816 64 260 5.2 7.0 0.00 0.00 0.00 67 1012.7
20260503232316 65 283 7.0 10.4 0.00 0.00 0.00 66 1012.9
20260503231816 65 305 7.0 10.4 0.00 0.00 0.00 66 1012.8
20260503231316 64 283 3.5 7.0 0.00 0.00 0.00 67 1013.0